Overview Statistics Trail Chart Weather Telemetry Raw packets
 

This is the latest recevied weather packets stored in our database for station/object VR2R-13. If no packets are shown the sender has not sent any weather packets the latest 10 day(s).

<< 179 180 181 182 183 >>
Time Temp. Humidity Pressure Rain* Wind** Luminosity Snow
1787767401 21.11° C 98% 907.1 hPa 0.25 mm - - -
1787767159 21.67° C 99% 907.1 hPa 0.25 mm - - -
1787767040 21.11° C 99% 907.1 hPa 0.25 mm - - -
1787766859 21.67° C 99% 907.2 hPa 0.25 mm - - -
1787766680 21.67° C 99% 907.3 hPa 0.25 mm - - -
1787766559 21.67° C 99% 907.2 hPa 0.25 mm - - -
1787766320 21.11° C 99% 907.3 hPa 0.25 mm - - -
1787766259 21.11° C 99% 907.4 hPa 0.25 mm - - -
1787765962 21.11° C 98% 907.6 hPa 0 mm - - -
1787765960 21.11° C 98% 907.5 hPa 0 mm - - -
1787765659 21.11° C 99% 907.5 hPa 0 mm - - -
1787765600 21.11° C 99% 907.7 hPa 0 mm - - -
1787765359 21.11° C 99% 907.6 hPa 2.79 mm - - -
1787765240 21.11° C 99% 907.6 hPa 2.79 mm - - -
1787764880 21.11° C 98% 907.5 hPa 1.78 mm - - -
1787764759 21.67° C 98% 907.4 hPa 1.52 mm - - -
1787764520 21.67° C 99% 907.3 hPa 0.76 mm - - -
1787764459 22.22° C 99% 907.6 hPa 0.51 mm - - -
1787764161 22.22° C 99% 907.7 hPa 0 mm - - -
1787763859 22.22° C 99% 907.9 hPa 0 mm - - -
1787763800 22.22° C 99% 907.9 hPa 0 mm - - -
1787763559 22.22° C 99% 907.9 hPa 0.25 mm - - -
1787763440 22.22° C 99% 907.9 hPa 0 mm - - -
1787763259 22.22° C 99% 908 hPa 0.51 mm - - -
1787763080 22.22° C 99% 908.1 hPa 0.51 mm - - -

* Rain latest hour (hover to see other rain measurements)
** Current wind speed in m/s (hover to see current wind gust speed)